Weather History for KDHT - May, 2013

Change the Weather History Date:

Thursday, May 23, 2013

  Actual Average Record
Temperature  
Mean Temperature 63 °F 66 °F  
Max Temperature 73 °F 81 °F 100 °F (2000)
Min Temperature 52 °F 51 °F 42 °F (1957)
Degree Days  
Heating Degree Days 2 2  
Month to date heating degree days 120 101  
Since 1 July heating degree days 4400 4703  
Cooling Degree Days 0 3  
Month to date cooling degree days 54 36  
Year to date cooling degree days 65 42  
Growing Degree Days 12 (Base 50)    
Moisture  
Dew Point 49 °F    
Average Humidity 55    
Maximum Humidity 73    
Minimum Humidity 37    
Precipitation  
Precipitation 0.00 in 0.08 in 1.86 in (1982)
Month to date precipitation 0.43 1.58  
Year to date precipitation 1.29 4.75  
Snow  
Snow 0.00 in 0.00 in 0.00 in ()
Month to date snowfall T 0.1  
Since 1 July snowfall 21.6 19.0  
Snow Depth 0.00 in    
Sea Level Pressure  
Sea Level Pressure 29.91 in    
Wind  
Wind Speed 18 mph (NE)    
Max Wind Speed 29 mph    
Max Gust Speed 36 mph    
Visibility 10 miles    
Events      
T = Trace of Precipitation, MM = Missing Value Source: NWS Daily Summary

Daily Weather History Graph

Daily Weather History Graph

Search for Another Location

Airport or City:

Trip Planner

Search our weather history database for the weather conditions in past years. The results will help you decide how hot, cold, wet, or windy it might be!

Date:

Astronomy

May. 23, 2013 Rise Set
Actual Time 6:38 AM CDT 8:55 PM CDT
Civil Twilight 6:09 AM CDT 9:24 PM CDT
Nautical Twilight 5:33 AM CDT 10:00 PM CDT
Astronomical Twilight 4:54 AM CDT 10:39 PM CDT
Moon 7:32 PM CDT (5/23) 5:21 AM CDT (5/23)
Length of Visible Light 15h 15m
Length of Day
14h 16m
Waxing Gibbous, 97% of the Moon is Illuminated
May 23
Waxing Gibbous
May 24
Full
May 31
Last Quarter
Jun 8
New
Jun 16
First Quarter

Hourly Weather History & Observations

Time (CDT) Temp. Dew Point Humidity Pressure Visibility Wind Dir Wind Speed Gust Speed Precip Events Conditions
12:53 AM 64.9 °F 37.0 °F 36% 29.72 in 10.0 mi ESE 13.8 mph - N/A   Clear
1:53 AM 62.1 °F 37.9 °F 41% 29.72 in 10.0 mi ESE 10.4 mph - N/A   Clear
2:53 AM 59.0 °F 37.0 °F 44% 29.73 in 10.0 mi East 8.1 mph - N/A   Clear
3:53 AM 55.9 °F 37.9 °F 51% 29.74 in 10.0 mi East 11.5 mph - N/A   Clear
4:53 AM 54.0 °F 39.0 °F 57% 29.75 in 10.0 mi ENE 8.1 mph - N/A   Clear
5:53 AM 53.1 °F 39.9 °F 61% 29.78 in 10.0 mi NNE 9.2 mph - N/A   Clear
6:53 AM 52.0 °F 41.0 °F 66% 29.83 in 10.0 mi North 13.8 mph - N/A   Clear
7:53 AM 55.9 °F 46.0 °F 69% 29.86 in 10.0 mi NNE 16.1 mph - N/A   Clear
8:53 AM 60.1 °F 48.9 °F 67% 29.90 in 10.0 mi NE 18.4 mph - N/A   Clear
9:53 AM 64.0 °F 50.0 °F 60% 29.93 in 10.0 mi NNE 20.7 mph - N/A   Clear
10:53 AM 69.1 °F 51.1 °F 53% 29.91 in 10.0 mi NNE 21.9 mph 31.1 mph N/A   Clear
11:53 AM 68.0 °F 51.1 °F 55% 29.96 in 10.0 mi North 23.0 mph 27.6 mph N/A   Mostly Cloudy
12:00 PM 69.8 °F 51.8 °F 53% 30.10 in 10.0 mi NNE 19.6 mph 31.1 mph N/A   Mostly Cloudy
12:30 PM 68.0 °F 50.0 °F 52% 30.12 in 10.0 mi North 23.0 mph 32.2 mph N/A   Overcast
12:53 PM 66.9 °F 50.0 °F 54% 29.99 in 10.0 mi NNE 24.2 mph 31.1 mph N/A   Overcast
1:53 PM 68.0 °F 48.9 °F 50% 29.99 in 10.0 mi NNE 21.9 mph 29.9 mph N/A   Partly Cloudy
2:53 PM 70.0 °F 50.0 °F 49% 29.97 in 10.0 mi NE 19.6 mph 27.6 mph N/A   Clear
3:53 PM 73.0 °F 51.1 °F 46% 29.94 in 10.0 mi ENE 24.2 mph 29.9 mph N/A   Clear
4:53 PM 72.0 °F 52.0 °F 49% 29.92 in 10.0 mi NE 27.6 mph 31.1 mph N/A   Clear
5:53 PM 70.0 °F 53.1 °F 55% 29.92 in 8.0 mi NE 24.2 mph 29.9 mph N/A   Partly Cloudy
6:53 PM 70.0 °F 54.0 °F 57% 29.89 in 10.0 mi ENE 21.9 mph - N/A   Scattered Clouds
7:34 PM 69.8 °F 55.4 °F 60% 30.01 in 10.0 mi ENE 20.7 mph - N/A   Mostly Cloudy
7:44 PM 69.8 °F 55.4 °F 60% 30.01 in 10.0 mi ENE 21.9 mph - N/A   Mostly Cloudy
7:53 PM 69.1 °F 55.0 °F 61% 29.90 in 9.0 mi ENE 19.6 mph 26.5 mph N/A   Overcast
8:53 PM 70.0 °F 57.0 °F 63% 29.92 in 10.0 mi East 20.7 mph - N/A   Overcast
9:53 PM 66.0 °F 55.9 °F 70% 29.94 in 10.0 mi East 17.3 mph - N/A   Mostly Cloudy
10:53 PM 66.0 °F 55.9 °F 70% 29.98 in 10.0 mi East 15.0 mph - N/A   Overcast
11:53 PM 66.0 °F 57.9 °F 75% 29.99 in 10.0 mi East 11.5 mph - N/A   Partly Cloudy